SL-8 DEB, 1478

Orbit data source: Space-Track

SL-8 DEB, 1478 is space debris in LEO originally from a launch on Mon, 15 Mar 1965 UTC launched from the Tyuratam Missile And Space Complex (TTMTR). Debris objects in space refer to the collection of defunct objects orbiting the Earth. Examples of debris include non-operational satellites, rocket bodies, and fragments generated from explosions, collisions, or faulty payload assembly.

Loading next visibility...
Identifier
1478, 1965-020BC
Orbit
LEO
Last TLE update
18 hours ago
Origin
Manufacturer
Unknown
Mission
Spacecraft
Bus & Motor
Unknown
Mass
Unknown
Launch date (UTC)
1965-03-15 (60 years ago)
Launch vehicle
Unknown
Launch site
Tyuratam Missile And Space Complex (TTMTR)
Object type
Payload
Rocket body
Debris
Shape & HBR
Unknown
Radar Cross Section
Medium (>0.1 m² and <1 m²)

Expand to show TLE details & history

TLE from 18 hours ago
0 SL-8 DEB
1 01478U 65020BC  25191.24331683  .00000583  00000-0  33912-3 0  9998
2 01478  56.0783  28.2623 0598476  35.7468 328.2057 13.53989043878528
Epoch: 2025-07-10T05:50Z
TLE epoch observation values (Epoch: 2025-07-10T05:50:22.574Z)
Latitude
-0.00001°
Longitude
12.25584°
Altitude
688.473 km
Speed
7.698 km/s
True Right ascension
01h 53m 02s
True Declination
0° 00' 00"
Sunlit
Object was in daylight at epoch
Visualization orbit readout
Latitude
46.77529°
Longitude
144.38376°
Altitude
973.858 km
Speed
7.414 km/s
Apparent Right ascension
05h 46m 33s
Apparent Declination
30° 20' 46"
Sunlit
Object is in daylight
Visualization observer readout
Local Sidereal Time
12:21:38
Azimuth
298.957° NW
Elevation
12.9°
Doppler factor
1
Orbital elements
Apogee altitude
1,502.428 km
Perigee altitude
612.426 km
Semi-major axis
7,435.564 km
Eccentricity
0.05985
Inclination
56.0783°
RAAN
28.2623°
Arg. of periapsis
35.7468°
True anomaly
Unknown
Mean anomaly
328.2057°
Eccentric anomaly
Unknown
Mean motion
3.38511 °/min
Orbital period
106.35 mins
BSTAR
0.00033912
Loading maneuver chart data...
Loading SW <> Apogee altitude chart data...
Loading historical data...
Loading historical data...
Loading historical data...
Loading historical data...
Loading historical data...
Loading historical data...
Loading historical data...

SL-8 DEB Visibility forecast

Observer location: undefined°, undefined°

Span
Click to sort rows by Start time (UTC) header in descending order
Start Az.
Max El. time (UTC)
Max El. Az.
Max El.
End time (UTC)
End Az.
12 mins2025-07-11 00:05:28.359Z298.741° NW2025-07-11 00:10:28.359Z241.303° WSW33.753°2025-07-11 00:17:28.359Z167.392° S
7 mins2025-07-11 15:41:28.359Z234.766° WSW2025-07-11 15:44:28.359Z352.418° N43.166°2025-07-11 15:48:28.359Z41.883° NE
5 mins2025-07-11 17:33:28.359Z309.805° NW2025-07-11 17:35:28.359Z340.442° N17.053°2025-07-11 17:38:28.359Z20.464° NNE
4 mins2025-07-11 19:26:28.359Z348.077° N2025-07-11 19:28:28.359Z12.926° NNE13.74°2025-07-11 19:30:28.359Z34.852° NE
9 mins2025-07-11 21:16:28.359Z337.304° NNW2025-07-11 21:20:28.359Z34.663° NE27.394°2025-07-11 21:25:28.359Z89.116° E
12 mins2025-07-11 23:06:28.359Z309.623° NW2025-07-11 23:11:28.359Z219.346° SW43.808°2025-07-11 23:18:28.359Z145.272° SSE
|